Sign-in with your pilot id or email, or register

ICAO: LMML Name / Country: Luqa / Malta
Latitude: 35.8575 Longitude: 14.4772
Total Arrivals:
Strict Standards: Non-static method AirportData::getarrflights() should not be called statically, assuming $this from incompatible context in /var/www/customers/vh-7192/web/home/phpvms/core/templates/airport_info.tpl on line 18
1
Total Departures:
Strict Standards: Non-static method AirportData::getdeptflights() should not be called statically, assuming $this from incompatible context in /var/www/customers/vh-7192/web/home/phpvms/core/templates/airport_info.tpl on line 21
1
Latest Arrival: MTA11P (LHBP-LMML) Tibor Berces Latest Departure: MTA11P (LMML-LHBP) Tibor Berces
Metar: LMML 161752Z 06004KT 010V120 8000 R31/1200U -RA FEW015CB OVC040 09/08 Q1016 RETS RESHRA NOSIG
More info

Charts for LMML


NOTAM


Warning: file_get_contents(http://api.vateud.net/notams/LMML.json): failed to open stream: HTTP request failed! HTTP/1.1 404 Not Found in /var/www/customers/vh-7192/web/home/phpvms/core/common/NOTAMSData.class.php on line 18

Warning: Invalid argument supplied for foreach() in /var/www/customers/vh-7192/web/home/phpvms/core/common/NOTAMSData.class.php on line 22

Luqa